[[{"header":{"parameterUnit":"m.s-1","parameterCategory":1,"la1":30.2991,"la2":30.254,"lo1":-89.0895,"lo2":-89.0444,"dy":0.0017,"dx":0.0017,"nx":28,"ny":28,"refTime":"2023-08-16T09:00:00:Z","depth":0,"parameterNumber":2,"parameterNumberName":"U-component_of_WINDS"},"data":[0,0,0,0,0,0,0,0,0,0,0,0,0,0,0,0,0,0,0,0,0,0,0,0,0,0,0,0,0,0,0,0,0,0,0,0,0,0,0,0,0,0,0,0,0,0,0,0,0,0,0,0,0,0,0,0,0,0,-2.3234,-2.3234,0,-2.326,-2.326,-2.326,-2.3211,-2.321,-2.3208,-2.3206,-2.3232,-2.3235,-2.3237,0,0,0,0,0,0,0,0,0,0,0,0,0,-2.3142,-2.3144,-2.3234,-2.3234,-2.3235,-2.326,-2.326,-2.326,-2.3211,-2.3209,-2.3207,-2.3206,-2.3232,-2.3234,-2.3237,0,0,0,0,0,0,0,0,0,0,0,0,0,-2.3176,-2.3145,-2.3234,-2.3213,-2.3212,-2.326,-2.326,-2.326,-2.3212,-2.3209,-2.3207,-2.3205,-2.3231,-2.3234,-2.3237,-2.3307,0,0,-2.3248,-2.3249,0,0,0,0,0,0,0,0,-2.3175,-2.318,-2.3216,-2.3215,-2.3213,-2.323,-2.3237,-2.3276,-2.3212,-2.3212,-2.3206,-2.3203,-2.3234,-2.3236,-2.3247,-2.3308,-2.3309,-2.3248,-2.325,-2.3251,-2.3252,0,0,0,0,0,0,0,-2.3172,-2.3178,-2.3244,-2.3217,-2.3215,-2.3203,-2.3205,-2.3244,-2.3236,-2.3212,-2.3208,-2.3212,-2.3232,-2.3244,-2.3247,-2.3309,-2.3248,-2.3251,-2.3253,-2.3254,-2.3429,-2.3432,0,0,0,0,0,0,-2.3172,-2.3177,-2.3243,-2.3245,-2.3187,-2.3206,-2.3209,-2.3227,-2.3235,-2.3234,-2.3214,-2.3209,-2.3239,-2.3243,-2.3248,-2.333,-2.3251,-2.3254,-2.3256,-2.3426,-2.343,-2.3433,0,0,0,0,0,0,-2.3171,-2.3179,-2.3242,-2.321,-2.3217,-2.321,-2.3231,-2.3229,-2.324,-2.3237,-2.3235,-2.3227,-2.3237,-2.3243,-2.3292,-2.333,-2.3256,-2.3259,-2.3423,-2.3427,-2.3431,-2.3495,0,0,0,0,0,0,-2.3168,-2.3179,-2.3205,-2.3211,-2.3219,-2.3287,-2.3233,-2.3231,-2.3246,-2.324,-2.3249,-2.3248,-2.3236,-2.3288,-2.3296,-2.3333,-2.3261,-2.342,-2.3425,-2.343,-2.349,-2.3501,-2.351,0,0,0,0,0,-2.3165,-2.3222,-2.3207,-2.3215,-2.3252,-2.3289,-2.3294,-2.3279,-2.3249,-2.3276,-2.3274,-2.3248,-2.3324,-2.3293,-2.3302,-2.3341,-2.3417,-2.3424,-2.3429,-2.3485,-2.3499,-2.351,0,0,0,0,0,0,-2.322,-2.3222,-2.3205,-2.3265,-2.3278,-2.3281,-2.3314,-2.3293,-2.3314,-2.3308,-2.3288,-2.3291,-2.3344,-2.3347,-2.3312,-2.3409,-2.3366,-2.3374,-2.3405,-2.3418,-2.3428,-2.3427,-2.3264,0,0,0,0,0,-2.3239,-2.327,-2.327,-2.3323,-2.333,-2.3321,-2.3337,-2.3324,-2.3336,-2.334,-2.3342,-2.3355,-2.3381,-2.34,-2.3424,-2.3489,-2.3491,-2.352,-2.3531,-2.3539,-2.3547,-2.3583,-2.3596,-2.3452,-2.3452,-2.3452,0,0,-2.3279,-2.3284,-2.3305,-2.3334,-2.3342,-2.3374,-2.3326,-2.3361,-2.3385,-2.3346,-2.3393,-2.3395,-2.3407,-2.3465,-2.3491,-2.3469,-2.3587,-2.3547,-2.3554,-2.3557,-2.359,-2.3604,-2.3616,-2.3456,-2.3456,-2.3455,0,0,-2.3369,-2.3375,-2.3421,-2.343,-2.3442,-2.3436,-2.3447,-2.3453,-2.3453,-2.35,-2.3471,-2.3499,-2.3545,-2.3556,-2.3567,-2.366,-2.3638,-2.3669,-2.3724,-2.3759,-2.377,-2.378,-2.3814,-2.3827,-2.3676,-2.3676,-2.3676,0,-2.3417,-2.3465,-2.3446,-2.3485,-2.3499,-2.3464,-2.3511,-2.352,-2.354,-2.355,-2.3526,-2.3584,-2.359,-2.365,-2.3673,-2.3683,-2.3695,-2.3669,-2.377,-2.378,-2.3789,-2.3821,-2.3834,-2.368,-2.368,-2.3679,-2.3679,0,-2.3524,-2.3557,-2.3592,-2.3613,-2.3631,-2.3672,-2.3661,-2.3681,-2.3666,-2.3663,-2.3711,-2.3717,-2.3742,-2.3755,-2.3741,-2.3814,-2.38,-2.3773,-2.373,-2.3806,-2.3837,-2.3849,-2.3685,-2.3684,-2.3683,-2.3682,0,0,-2.365,-2.366,-2.3673,-2.3683,-2.3694,-2.3719,-2.3759,-2.3784,-2.3803,-2.3817,-2.3851,-2.3891,-2.3866,-2.3879,-2.3865,-2.3896,-2.3971,-2.3865,-2.3865,-2.3886,-2.4053,-2.4074,-2.4089,-2.3955,-2.3957,-2.3959,-2.4052,0,-2.374,-2.381,-2.3795,-2.3864,-2.3895,-2.3862,-2.3897,-2.3908,-2.3905,-2.3931,-2.3928,-2.3957,-2.3921,-2.3929,-2.3957,-2.3956,-2.4004,-2.3949,-2.3987,-2.3989,-2.3987,-2.4105,-2.4128,-2.4215,-2.4064,-2.4066,-2.4067,0,-2.3855,-2.3875,-2.3947,-2.3954,-2.3966,-2.3998,-2.402,-2.4045,-2.4056,-2.4052,-2.4066,-2.4047,-2.4087,-2.4042,-2.4097,-2.406,-2.4074,-2.4076,-2.4079,-2.4083,-2.4034,-2.4114,-2.4243,-2.4257,-2.4085,-2.4084,-2.4083,0,-2.3942,-2.3986,-2.4035,-2.4044,-2.4053,-2.4076,-2.4081,-2.4089,-2.4106,-2.4124,-2.4135,-2.4158,-2.4171,-2.4189,-2.4177,-2.4145,-2.4235,-2.4188,-2.4233,-2.4234,-2.4255,-2.4254,-2.439,-2.4262,-2.4261,-2.4261,-2.4261,0,-2.4045,-2.4091,-2.4075,-2.4105,-2.4156,-2.4137,-2.4187,-2.4188,-2.4196,-2.4226,-2.4199,-2.4227,-2.4208,-2.4235,-2.4225,-2.4273,-2.4279,-2.4277,-2.4275,-2.4281,-2.4282,-2.4292,-2.4286,-2.4265,-2.4264,-2.4263,-2.4263,0,-2.4152,-2.4142,-2.4194,-2.4198,-2.42,-2.4237,-2.424,-2.4269,-2.4264,-2.4302,-2.431,-2.4302,-2.4333,-2.4322,-2.4354,-2.4347,-2.4409,-2.4397,-2.4406,-2.4403,-2.4449,-2.4446,-2.4597,-2.4617,-2.4475,-2.4476,-2.4477,0,-2.422,-2.4254,-2.4262,-2.428,-2.4287,-2.4316,-2.4333,-2.4316,-2.4334,-2.4349,-2.4376,-2.4404,-2.4426,-2.4476,-2.4474,-2.4498,-2.4488,-2.4539,-2.4492,-2.4497,-2.4491,-2.449,-2.4494,-2.455,-2.4551,-2.4553,-2.4554,0,-2.4341,-2.4335,-2.4359,-2.4383,-2.4404,-2.4421,-2.4436,-2.4452,-2.4436,-2.4458,-2.4489,-2.4506,-2.4539,-2.4568,-2.459,-2.4594,-2.4572,-2.4568,-2.458,-2.4588,-2.4592,-2.4592,-2.4434,-2.4565,-2.4564,-2.4563,-2.4563,-2.4562,-2.4431,-2.4461,-2.4471,-2.45,-2.4509,-2.4524,-2.4551,-2.4549,-2.4575,-2.4601,-2.4589,-2.4625,-2.4636,-2.4663,-2.4671,-2.4699,-2.4679,-2.4696,-2.47,-2.4705,-2.4712,-2.4586,-2.4702,-2.4702,-2.4702,-2.4701,-2.4701,0,-2.4553,-2.4557,-2.4584,-2.4606,-2.4629,-2.4605,-2.462,-2.4641,-2.4674,-2.4685,-2.4707,-2.4743,-2.4771,-2.477,-2.4795,-2.4818,-2.4809,-2.4825,-2.4825,-2.4826,-2.4728,-2.4716,-2.4833,-2.4833,-2.4833,-2.4833,-2.4833,-2.4833,-2.4619,-2.4668,-2.4663,-2.4716,-2.472,-2.4756,-2.4767,-2.4781,-2.479,-2.4832,-2.4854,-2.4854,-2.486,-2.4886,-2.491,-2.4909,-2.4921,-2.4942,-2.4938,-2.4846,-2.4833,-2.4821,-2.4809,-2.4944,-2.4944,-2.5034,-2.5035,-2.5035]},{"header":{"parameterUnit":"m.s-1","parameterCategory":1,"la1":30.2991,"la2":30.254,"lo1":-89.0895,"lo2":-89.0444,"dy":0.0017,"dx":0.0017,"nx":28,"ny":28,"refTime":"2023-08-16T09:00:00:Z","depth":0,"parameterNumber":3,"parameterNumberName":"V-component_of_WINDS"},"data":[0,0,0,0,0,0,0,0,0,0,0,0,0,0,0,0,0,0,0,0,0,0,0,0,0,0,0,0,0,0,0,0,0,0,0,0,0,0,0,0,0,0,0,0,0,0,0,0,0,0,0,0,0,0,0,0,0,0,-3.8466,-3.8466,0,-3.849,-3.8491,-3.8491,-3.8458,-3.8457,-3.8456,-3.8455,-3.8477,-3.8478,-3.848,0,0,0,0,0,0,0,0,0,0,0,0,0,-3.8387,-3.8388,-3.8465,-3.8466,-3.8466,-3.849,-3.8491,-3.8491,-3.8458,-3.8457,-3.8456,-3.8454,-3.8476,-3.8478,-3.848,0,0,0,0,0,0,0,0,0,0,0,0,0,-3.8417,-3.8389,-3.8465,-3.8453,-3.8452,-3.849,-3.8491,-3.8491,-3.8459,-3.8457,-3.8455,-3.8454,-3.8476,-3.8478,-3.8481,-3.8531,0,0,-3.8488,-3.8489,0,0,0,0,0,0,0,0,-3.8415,-3.842,-3.8454,-3.8454,-3.8453,-3.8469,-3.8471,-3.8504,-3.8459,-3.8456,-3.8455,-3.8453,-3.8476,-3.8478,-3.8486,-3.8532,-3.8533,-3.8488,-3.849,-3.8491,-3.8492,0,0,0,0,0,0,0,-3.8413,-3.8419,-3.8475,-3.8455,-3.8454,-3.8445,-3.8447,-3.8477,-3.8475,-3.8456,-3.8454,-3.8457,-3.8475,-3.8484,-3.8487,-3.8533,-3.8488,-3.8491,-3.8492,-3.8493,-3.8622,-3.8624,0,0,0,0,0,0,-3.8413,-3.8417,-3.8474,-3.8476,-3.843,-3.8448,-3.845,-3.8466,-3.8475,-3.8475,-3.8459,-3.8456,-3.8481,-3.8484,-3.8487,-3.8548,-3.8491,-3.8493,-3.8495,-3.862,-3.8623,-3.8625,0,0,0,0,0,0,-3.8412,-3.8419,-3.8473,-3.8446,-3.8452,-3.8451,-3.8469,-3.8467,-3.8477,-3.8477,-3.8476,-3.8469,-3.8479,-3.8484,-3.8521,-3.8548,-3.8495,-3.8497,-3.8618,-3.8621,-3.8624,-3.8668,0,0,0,0,0,0,-3.8409,-3.8418,-3.8438,-3.8447,-3.8454,-3.8508,-3.847,-3.8469,-3.8481,-3.8478,-3.8486,-3.8486,-3.8478,-3.8517,-3.8523,-3.855,-3.8499,-3.8616,-3.8619,-3.8623,-3.8664,-3.8672,-3.8679,0,0,0,0,0,-3.8407,-3.8449,-3.8439,-3.8446,-3.8479,-3.8509,-3.8513,-3.8505,-3.8484,-3.8503,-3.8504,-3.8486,-3.8544,-3.8521,-3.8528,-3.8556,-3.8614,-3.8618,-3.8623,-3.8661,-3.8671,-3.8679,0,0,0,0,0,0,-3.8442,-3.845,-3.8439,-3.8486,-3.8497,-3.8504,-3.8528,-3.8515,-3.8532,-3.8527,-3.8515,-3.8517,-3.8557,-3.856,-3.8535,-3.8606,-3.8575,-3.8581,-3.8602,-3.8612,-3.8619,-3.8617,-3.8501,0,0,0,0,0,-3.8456,-3.8481,-3.8485,-3.8526,-3.8532,-3.8529,-3.8542,-3.8535,-3.8546,-3.855,-3.8553,-3.8563,-3.8584,-3.8598,-3.8617,-3.8665,-3.8666,-3.8687,-3.8694,-3.8701,-3.8706,-3.8731,-3.8741,-3.8639,-3.8639,-3.8639,0,0,-3.8483,-3.849,-3.8507,-3.8533,-3.8541,-3.8567,-3.8534,-3.8562,-3.858,-3.8554,-3.859,-3.8592,-3.8603,-3.8646,-3.8665,-3.8649,-3.8734,-3.8706,-3.8711,-3.8713,-3.8737,-3.8747,-3.8755,-3.8642,-3.8641,-3.8641,0,0,-3.8547,-3.8555,-3.859,-3.8599,-3.8612,-3.861,-3.8618,-3.8627,-3.8628,-3.8664,-3.8645,-3.8666,-3.8702,-3.871,-3.8719,-3.8786,-3.8771,-3.8793,-3.8831,-3.8857,-3.8865,-3.8872,-3.8896,-3.8905,-3.8798,-3.8798,-3.8798,0,-3.8579,-3.8618,-3.8609,-3.8639,-3.8651,-3.8629,-3.8664,-3.8673,-3.8691,-3.8699,-3.8682,-3.8727,-3.8733,-3.8778,-3.8794,-3.8802,-3.8811,-3.8792,-3.8864,-3.8871,-3.8878,-3.8901,-3.891,-3.8801,-3.88,-3.88,-3.88,0,-3.8657,-3.8684,-3.871,-3.873,-3.8745,-3.8777,-3.8772,-3.8788,-3.8779,-3.8779,-3.8815,-3.8821,-3.8841,-3.8851,-3.8842,-3.8895,-3.8885,-3.8867,-3.8836,-3.889,-3.8912,-3.892,-3.8805,-3.8804,-3.8803,-3.8802,0,0,-3.8743,-3.8758,-3.8768,-3.8777,-3.879,-3.881,-3.8841,-3.8862,-3.8876,-3.8889,-3.8914,-3.8945,-3.8928,-3.8939,-3.8931,-3.8953,-3.9006,-3.8931,-3.8931,-3.8945,-3.9064,-3.9079,-3.9089,-3.8995,-3.8997,-3.8998,-3.9063,0,-3.8807,-3.8862,-3.8855,-3.8907,-3.8932,-3.8912,-3.8939,-3.8949,-3.895,-3.897,-3.8969,-3.8992,-3.8968,-3.8974,-3.8995,-3.8995,-3.903,-3.899,-3.9018,-3.9019,-3.9017,-3.91,-3.9115,-3.9176,-3.9072,-3.9073,-3.9074,0,-3.8889,-3.8907,-3.8962,-3.8972,-3.8982,-3.9006,-3.9025,-3.9045,-3.9056,-3.9054,-3.9066,-3.9054,-3.9084,-3.9053,-3.9094,-3.9068,-3.9078,-3.908,-3.9082,-3.9085,-3.905,-3.9105,-3.9196,-3.9205,-3.9087,-3.9086,-3.9085,0,-3.8947,-3.8984,-3.9022,-3.903,-3.9043,-3.906,-3.9066,-3.9076,-3.9089,-3.9105,-3.9113,-3.9132,-3.9142,-3.9156,-3.9149,-3.9127,-3.9192,-3.916,-3.9191,-3.9191,-3.9206,-3.9205,-3.93,-3.9212,-3.9212,-3.9212,-3.9212,0,-3.9019,-3.9053,-3.9049,-3.9072,-3.911,-3.9101,-3.9139,-3.9142,-3.9151,-3.9174,-3.9157,-3.9178,-3.9168,-3.9189,-3.9183,-3.9218,-3.9223,-3.9222,-3.922,-3.9224,-3.9224,-3.9231,-3.9227,-3.9214,-3.9214,-3.9213,-3.9213,0,-3.909,-3.9088,-3.9129,-3.9138,-3.914,-3.9168,-3.9175,-3.9196,-3.9196,-3.9225,-3.9231,-3.9229,-3.9253,-3.9248,-3.9273,-3.9269,-3.9313,-3.9306,-3.931,-3.9308,-3.934,-3.9337,-3.9443,-3.9456,-3.936,-3.9361,-3.9362,0,-3.9137,-3.9163,-3.9175,-3.919,-3.9198,-3.9222,-3.9235,-3.9227,-3.9242,-3.9257,-3.9277,-3.9299,-3.9317,-3.9355,-3.9355,-3.9374,-3.9368,-3.9403,-3.937,-3.9373,-3.9368,-3.9367,-3.937,-3.941,-3.9411,-3.9412,-3.9413,0,-3.9219,-3.9217,-3.9239,-3.926,-3.9277,-3.9293,-3.9307,-3.932,-3.9313,-3.933,-3.9355,-3.9368,-3.9395,-3.9417,-3.9435,-3.9439,-3.9425,-3.9423,-3.9431,-3.9435,-3.9437,-3.9437,-3.9328,-3.9421,-3.942,-3.9419,-3.9419,-3.9418,-3.928,-3.9303,-3.9315,-3.9339,-3.9349,-3.9363,-3.9384,-3.9386,-3.9407,-3.9429,-3.9423,-3.9451,-3.9461,-3.9483,-3.949,-3.9511,-3.9498,-3.951,-3.9513,-3.9516,-3.952,-3.9433,-3.9514,-3.9514,-3.9514,-3.9514,-3.9514,0,-3.9362,-3.9369,-3.9392,-3.9413,-3.9432,-3.9418,-3.9432,-3.9449,-3.9474,-3.9485,-3.9503,-3.9532,-3.9553,-3.9555,-3.9576,-3.9592,-3.9586,-3.9598,-3.9596,-3.9598,-3.9531,-3.9522,-3.9602,-3.9602,-3.9602,-3.9602,-3.9602,-3.9602,-3.9407,-3.9445,-3.9445,-3.9487,-3.9494,-3.9522,-3.9532,-3.9544,-3.9553,-3.9586,-3.9605,-3.9606,-3.9614,-3.9634,-3.9653,-3.9653,-3.9662,-3.9676,-3.9674,-3.9611,-3.9602,-3.9594,-3.9585,-3.9678,-3.9678,-3.9739,-3.9739,-3.974]}]]